www.pogodaiklimat.ru
ПОГОДА в Сарнах
Время
(UTC), дата
21 4.08
00 5.08
03 5.08
06 5.08
09 5.08
12 5.08
15 5.08
18 5.08
21 5.08
00 6.08
03 6.08
06 6.08
09 6.08
12 6.08
15 6.08
18 6.08
21 6.08
00 7.08
03 7.08
06 7.08
09 7.08
12 7.08
15 7.08
18 7.08
21 7.08
00 8.08
03 8.08
06 8.08
09 8.08
12 8.08
15 8.08
18 8.08
21 8.08
00 9.08
03 9.08
06 9.08
09 9.08
12 9.08
15 9.08
18 9.08
21 9.08
00 10.08
03 10.08
06 10.08
09 10.08
12 10.08
15 10.08
18 10.08
21 10.08
00 11.08
03 11.08
06 11.08
09 11.08
12 11.08
15 11.08
Ветер
(напр.,м/с)
Видим. Явления Облачность Т
(С)
Тd
(С)
f
(%)
Тe
(С)
Тes
(С)
Комфортность P
(гПа)
Po
(гПа)
Тmin
(С)
Tmax
(С)
R
(мм)
R24
(мм)
S
(см)
ЮВ 2 10 км 4/0
[Ci]
+19.4 +11.9 62 +21 +21 комфорт 1012.2 994.0
Ю 1 10 км 8/0
[Ci]
+17.0 +12.3 74 +18 +18 1013.0 994.7
ЮВ 1 10 км 9/0
[Ac trans Cs]
+15.5 +12.8 84 +16 +16 1014.0 995.6
З 2 10 км 6/0
[Cc]
+20.4 +13.3 64 +23 +28 комфорт 1015.3 997.2 +15.2
штиль 0 10 км 8/0
[Cc]
+25.2 +15.3 54 +28 +44 жарко 1016.3 998.4
Ю 1 10 км 8/4 1000 м
[Cu hum Cc]
+29.1 +12.7 36 +30 +38 жарко 1016.1 998.5
С 4 10 км 4/0
[Cc]
+28.5 +14.5 42 +31 +33 душно 1016.3 998.6
С 3 10 км 3/0
[Ac trans Ci fib]
+23.7 +18.1 71 +28 +28 душно 1018.2 1000.2 +30.4
С 2 10 км ясно +20.3 +17.5 84 +24 +24 комфорт 1019.6 1001.4
С 1 10 км ясно +17.9 +16.4 91 +19 +19 1020.4 1002.0
С 2 10 км ясно +16.8 +15.8 94 +17 +17 1021.3 1002.8
СВ 3 10 км ясно +21.2 +16.9 76 +25 +29 комфорт 1022.0 1003.8 +16.6
С 3 10 км ясно +27.6 +15.7 48 +31 +42 душно 1022.0 1004.2
СВ 3 10 км 6/6 600 м
[Cu med, cong]
+31.0 +11.4 30 +31 +35 жарко 1021.6 1004.0
С 3 10 км 4/4 600 м
[Cu med, cong]
+29.5 +11.8 34 +30 +32 жарко 1021.4 1003.7
С 2 10 км 4/0
[Ac lent Cc]
+26.5 +14.9 49 +29 +29 жарко 1022.3 1004.4 +31.2
С 3 10 км 8/0
[Ac As]
+23.3 +17.3 69 +29 +29 душно 1023.4 1005.3
С 2 10 км 8/0
[Ac As Cc]
+21.6 +17.7 78 +26 +26 душно 1023.7 1005.5
С 1 10 км 6/0
[Ac As Cc]
+18.8 +17.0 89 +21 +21 комфорт 1024.1 1005.7
СВ 3 10 км 6/0
[Ac As Ci]
+21.0 +17.4 80 +25 +28 комфорт 1024.8 1006.6 +18.6
В 3 10 км 4/0
[Ac trans Cs]
+27.6 +17.1 53 +32 +41 очень
душно
1024.2 1006.4
СВ 4 10 км 4/1 1000 м
[Cu hum Cs]
+30.5 +15.0 39 +33 +40 душно 1023.5 1005.8
СВ 4 10 км 3/0
[Cs]
+30.2 +14.0 37 +32 +34 жарко 1022.5 1004.8
С 1 10 км ясно +26.1 +11.3 40 +27 +27 жарко 1022.8 1004.9 +30.5
штиль 0 10 км ясно +20.5 +11.5 56 +22 +22 комфорт 1023.2 1004.9
СВ 2 10 км ясно +19.4 +14.4 73 +22 +22 комфорт 1023.6 1005.3
штиль 0 10 км ясно +17.1 +14.1 83 +17 +17 1023.9 1005.4
В 2 10 км ясно +22.1 +15.0 64 +26 +31 душно 1024.1 1005.9 +16.8
В 3 10 км 1/1 1000 м
[Cu hum]
+27.1 +12.3 40 +29 +39 жарко 1022.9 1005.0
СВ 4 10 км 1/1 1000 м
[Cu hum]
+28.3 +11.9 36 +29 +37 жарко 1021.5 1003.7
СВ 4 10 км 1/1 1000 м
[Cu hum]
+28.3 +10.7 33 +29 +31 жарко 1020.4 1002.6
штиль 0 10 км ясно +25.0 +13.4 49 +27 +27 жарко 1020.0 1002.1 +29.5
штиль 0 10 км ясно +19.7 +15.8 78 +22 +22 комфорт 1020.2 1001.9
штиль 0 10 км 3/0
[Cc]
+16.6 +14.9 90 +16 +16 1020.2 1001.7
штиль 0 10 км 3/3 600 м
[Sc]
+16.4 +15.4 94 +16 +16 1019.8 1001.3
штиль 0 10 км 9/9 600 м
[Cu Sc]
+21.3 +15.6 70 +25 +25 комфорт 1019.6 1001.5 +15.7
С 1 10 км 6/5 600 м
[Cu med, cong Ci]
+26.6 +11.1 38 +28 +35 жарко 1018.7 1000.9
С 1 10 км гроза без осадков 9/9 600 м
[Cb cap]
+24.0 +13.8 53 +26 +28 жарко 1017.8 999.8
З 3 10 км в посл. час гроза {ливн. дождь} 9/6 600 м
[Cb cap Ci]
+21.1 +19.0 88 +25 +26 комфорт 1017.1 999.0
З 2 10 км {гроза, ливн. дождь} 8/0
[Ac As Cs]
+20.9 +17.8 82 +26 +26 душно 1017.2 999.1 +27.9 0.7
штиль 0 10 км ясно +17.4 +16.4 94 +17 +17 1017.8 999.5
штиль 0 10 км ясно +15.4 +15.1 98 +15 +15 1017.8 999.3
СЗ 1 10 км 1/0
[Ac lent]
+13.8 +13.1 96 +14 +14 1018.1 999.5
СВ 2 10 км ясно +19.2 +14.6 75 +21 +26 комфорт 1018.2 999.9 +13.4
С 3 10 км 1/1 1000 м
[Cu hum]
+25.6 +12.0 43 +27 +37 жарко 1017.5 999.6
С 3 10 км 6/6 600 м
[Cu med, cong]
+28.2 +9.6 31 +28 +32 жарко 1016.1 998.4
З 1 10 км в посл. час гроза {ливн. дождь} 8/5 600 м
[Cb cap Ci ing]
+21.7 +18.5 82 +26 +28 душно 1017.0 998.9
С 1 10 км {гроза, ливн. дождь} 8/4 600 м
[Sc Ac lent Cc]
+21.9 +17.7 77 +26 +26 душно 1016.8 998.8 +29.0 2
З 2 10 км 4/0
[Ac As]
+17.8 +16.5 92 +18 +18 1017.5 999.2
штиль 0 4000 м дымка ясно +15.9 +15.0 94 +16 +16 1017.4 999.0
З 1 2000 м дымка {туман} ясно +15.2 +14.7 97 +16 +16 1017.7 999.2
СЗ 1 10 км {туман} 6/0
[Cs]
+19.9 +18.5 92 +24 +29 комфорт 1017.3 999.1 +14.2
С 3 10 км 8/1 1000 м
[Cu hum Cs]
+26.1 +15.4 52 +29 +37 жарко 1016.7 998.9
С 3 10 км 9/4 600 м
[Cu med, cong Cs]
+26.7 +14.0 46 +29 +34 жарко 1016.4 998.6
С 3 10 км 8/3 600 м
[Cu med, cong Cs]
+27.1 +13.7 44 +29 +31 жарко 1015.7 998.0
Местоположение метеостанции Сарны (Ровенская область, Украина): широта 51.28 долгота 26.62 высота над уровнем моря 156 м.
В архиве по умолчанию представлена погода в Сарнах за последнюю неделю. Архивные данные за месяц целиком и за предыдущие месяцы, начиная с января 2011 года, Вы можете получить, выбрав интересующий диапазон дат из раскрывающегося списка и нажав кнопку "Найти!".
*Определитесь, кто Вы:
Внимание! Время в таблицах - всемирное. Для получения местного времени необходимо прибавить поправку, которая равна 2 ч.
Смотрите также архив погоды в соседних городах и на ближайших метеорологических станциях:
Партнеры нашего сайта:      
Пояснения к столбцам:
  • Ветер - указаны скорость ветра в м/с - средняя за 10 мин, порывы в срок и между сроками (в фигурных скобках) и направление, откуда дует ветер: С - северный,
  • СВ - северо-восточный, В - восточный, ЮВ - юго-восточный, Ю - южный, ЮЗ - юго-западный, З - западный, СЗ - северо-западный.
  • Видимость - горизонтальная дальность видимости в метрах или километрах. При видимости от 1 до 10 км при отсутствии осадков обычно наблюдается дымка, при ухудшении видимости до 1 км и менее - туман. В сухую погоду видимость может ухудшаться дымом, пылью или мглою.
  • Явления - указаны атмосферные явления, наблюдавшиеся в срок или в последний час перед сроком; фигурными скобками обозначены явления, наблюдавшиеся между сроками (за 1-3 часа до срока); квадратными скобками обозначены град или гололедные отложения с указанием их диаметра в мм.
  • Облачность - указаны через наклонную черту общая и нижняя облачность в баллах и высота нижней границы облаков в метрах; квадратными скобками обозначены формы облаков: Ci - перистые, Cs - перисто-слоистые, Cc - перисто-кучевые, Ac - высококучевые, As - высокослоистые, Sc - слоисто-кучевые, Ns - слоисто-дождевые, Cu - кучевые, Cb - кучево-дождевые. Подробнее классификацию облаков см. в Атласе облаков (PDF).
  • T - Температура воздуха - температура, измеренная на высоте 2 м над землей.
  • Td - Температура точки росы - температура, при понижении до которой содержащийся в воздухе водяной пар достигнет насыщения.
  • f - Относительная влажность воздуха - влажноcть воздуха, измеренная на высоте 2 м над землей.
  • Te - Эффективная температура - температура, которую ощущает одетый по сезону человек в тени. Характеристика душности погоды. При расчете учитывается влияние влажности воздуха и скорости ветра на теплоощущения человека.
  • Tes - Эффективная температура на солнце - температура, которую ощущает человек, с поправкой на солнечный нагрев. Характеристика знойности погоды. Зависит от высоты солнца над горизонтом, облачности и скорости ветра. Ночью, в пасмурную погоду, а также при ветре 12 м/с и более поправка равна нулю.
  • P - Атмосферное давление - приведенное к уровню моря атмосферное давление.
  • Po - Атмосферное давление - измеренное на уровне метеостанции атмосферное давление.
  • Tmin - Минимальная температура - минимум температуры воздуха на высоте 2 м над землей.
  • Tmax - Максимальная температура - максимум температуры воздуха на высоте 2 м над землей.
  • R - Количество осадков - Количество выпавших осадков за период времени, мм. При наведении курсора мыши на число - период времени, за который выпало указанное количество осадков.
  • R24 - Количество осадков - Количество выпавших осадков за 24 часа, мм.
  • S - Снежный покров - Высота снежного покрова, см. При наведении курсора мыши на число - состояние снежного покрова и степень покрытия местности в баллах.